Location: Banios
(43.0451°N, 0.2335°E)
Time: 23:38:56
(UTC+00:00)

N. Korean satellite - Pass Details

Date: 05 December 2021
Orbit: 447 x 491 km, 97.3° (Epoch: 21 January)

Event Time Altitude Azimuth Distance (km) Brightness Sun altitude
Rises 05:55:54 0° 360° (N) 2,464 10.0 -14.0°
Reaches altitude 10° 05:58:08 10° 347° (NNW) 1,584 8.9 -13.6°
Maximum altitude 06:01:00 26° 290° (WNW) 920 7.3 -13.1°
Drops below altitude 10° 06:03:51 10° 231° (SW) 1,571 8.8 -12.6°
Sets 06:06:04 0° 219° (SW) 2,439 9.9 -12.2°
